COSMOS 249 DEB, 3583

Orbit data source: Space-Track

COSMOS 249 DEB, 3583 is space debris in LEO originally from a launch on Sun, 20 Oct 1968 UTC launched from the Tyuratam Missile And Space Complex (TTMTR). Debris objects in space refer to the collection of defunct objects orbiting the Earth. Examples of debris include non-operational satellites, rocket bodies, and fragments generated from explosions, collisions, or faulty payload assembly.

Loading next visibility...
Identifier
3583, 1968-091R
Orbit
LEO
Country
Flag of CISCIS
Related business
Manufacturer
Unknown
Mission
Spacecraft
Bus & Motor
Unknown
Mass
Unknown
Launch date (UTC)
1968-10-20 (57 years ago)
Launch vehicle
Unknown
Launch site
Tyuratam Missile And Space Complex (TTMTR)
Object type
Payload
Rocket body
Debris
Shape & HBR
Unknown
Radar Cross Section
Small (<0.1 m²)

Expand to show TLE details & history
Last TLE update: 17 hours ago

TLE from 17 hours ago
0 COSMOS 249 DEB
1 03583U 68091R   25260.85229104  .00000588  00000-0  90626-3 0  9996
2 03583  62.0767 106.7933 0710370  78.6957 289.2941 12.85519619649201
Epoch: 2025-09-17T20:27Z
TLE epoch observation values (Epoch: 2025-09-17T20:27:17.945Z)
Latitude
0.00002°
Longitude
162.94625°
Altitude
1,176.025 km
Speed
7.334 km/s
True Right ascension
07h 07m 10s
True Declination
0° 00' 00"
Sunlit
Object was in daylight at epoch
Visualization orbit readout
Latitude
Unknown
Longitude
Unknown
Altitude
Unknown
Speed
Unknown
Apparent Right ascension
Unknown
Apparent Declination
Unknown
Sunlit
N/A
Visualization observer readout
Local Sidereal Time
06:44:00
Azimuth
Unknown
Elevation
Unknown
Doppler factor
Unknown
Orbital elements
Apogee altitude
1,865.113 km
Perigee altitude
771.639 km
Semi-major axis
7,696.513 km
Eccentricity
0.07104
Inclination
62.0767°
RAAN
106.7933°
Arg. of periapsis
78.6957°
True anomaly
281.40421°
Mean anomaly
289.2941°
Eccentric anomaly
285.36954°
Mean motion
3.21442 °/min
Orbital period
112 mins
BSTAR
0.00090626
Loading maneuver chart data...
Computing Atmospheric mass density...

Documentation

Showing up to 5 results
|